Back to catalog

CSO-1

AliveMilitarySSO
NORAD 43866·PAYLOAD·🇫🇷 France

Launched Dec 19, 2018 from Guiana Space Centre

Loading…

Next Passes (next 24 hours)

TLE

StaleSource: Mike McCants

Epoch: Aug 26, 2026, 02:13 UTC

1 43866U 18106A   26238.09305404 0.00000000  00000-0  00000-0 0    02
2 43866  98.5979 176.9049 0006239  40.9466 318.9479 14.26736493    07

Track CSO-1 in real time with AllMySat

Download on the App Store